Weather History for Oelwein, IA

Change the Weather History Date:

Thursday, January 16, 2014

  Actual Average Record
Temperature  
Mean Temperature 18 °F -  
Max Temperature 33 °F 26 °F 51 °F (1990)
Min Temperature 3 °F 7 °F -25 °F (1977)
Degree Days  
Heating Degree Days 47    
Moisture  
Dew Point 15 °F    
Average Humidity 78    
Maximum Humidity 100    
Minimum Humidity 63    
Precipitation  
Precipitation 0.00 in - - ()
Sea Level Pressure  
Sea Level Pressure 29.60 in    
Wind  
Wind Speed 19 mph (WNW)    
Max Wind Speed 39 mph    
Max Gust Speed 50 mph    
Visibility 9 miles    
Events Snow    
Averages and records for this station are not official NWS values.
T = Trace of Precipitation, MM = Missing Value Source: NWS Daily Summary

Daily Weather History Graph

Daily Weather History Graph

Search for Another Location

Airport:

Trip Planner

Search our weather history database for the weather conditions in past years. The results will help you decide how hot, cold, wet, or windy it might be!

Date:

Astronomy

Jan. 16, 2014 Rise Set
Actual Time 7:34 AM CST 5:00 PM CST
Civil Twilight 7:03 AM CST 5:32 PM CST
Nautical Twilight 6:28 AM CST 6:06 PM CST
Astronomical Twilight 5:55 AM CST 6:40 PM CST
Moon 5:55 PM CST (1/16) 7:26 AM CST (1/16)
Length of Visible Light 10h 28m
Length of Day
9h 26m
Full, 100% of the Moon is Illuminated
Jan 16
Full
Jan 23
Last Quarter
Jan 30
New
Feb 6
First Quarter
Feb 14
Full

Hourly Weather History & Observations

Time (CST) Temp. Windchill Dew Point Humidity Pressure Visibility Wind Dir Wind Speed Gust Speed Precip Events Conditions
12:15 AM 23.0 °F 9.6 °F 15.8 °F 74% 29.60 in 10.0 mi SSW 16.1 mph - N/A   Mostly Cloudy
12:35 AM 23.0 °F 8.7 °F 15.8 °F 74% 29.58 in 10.0 mi SSW 18.4 mph - N/A   Mostly Cloudy
12:55 AM 24.8 °F 11.9 °F 17.6 °F 74% 29.58 in 10.0 mi SSW 16.1 mph - N/A   Mostly Cloudy
1:15 AM 23.0 °F 9.6 °F 17.6 °F 80% 29.56 in 10.0 mi SSW 16.1 mph - N/A   Mostly Cloudy
1:35 AM 24.8 °F 11.1 °F 17.6 °F 74% 29.56 in 10.0 mi SW 18.4 mph - N/A   Mostly Cloudy
1:55 AM 24.8 °F 11.9 °F 19.4 °F 80% 29.55 in 10.0 mi SW 16.1 mph - N/A   Mostly Cloudy
2:15 AM 24.8 °F 13.4 °F 19.4 °F 80% 29.55 in 10.0 mi SSW 12.7 mph - N/A   Scattered Clouds
2:35 AM 23.0 °F 11.1 °F 19.4 °F 86% 29.54 in 10.0 mi SSW 12.7 mph - N/A   Clear
2:55 AM 23.0 °F 12.4 °F 19.4 °F 86% 29.53 in 10.0 mi SSW 10.4 mph - N/A   Clear
3:15 AM 21.2 °F 10.1 °F 17.6 °F 86% 29.52 in 10.0 mi SSW 10.4 mph - N/A   Clear
3:35 AM 23.0 °F 12.4 °F 19.4 °F 86% 29.51 in 10.0 mi SSW 10.4 mph - N/A   Clear
3:55 AM 23.0 °F 13.1 °F 19.4 °F 86% 29.50 in 10.0 mi SSW 9.2 mph - N/A   Clear
4:15 AM 23.0 °F 12.4 °F 19.4 °F 86% 29.49 in 10.0 mi SSW 10.4 mph - N/A   Mostly Cloudy
4:35 AM 24.8 °F 16.1 °F 21.2 °F 86% 29.49 in 10.0 mi SSW 8.1 mph - N/A   Overcast
4:55 AM 24.8 °F 14.0 °F 23.0 °F 93% 29.48 in 10.0 mi SW 11.5 mph - N/A   Overcast
5:15 AM 28.4 °F 19.1 °F 24.8 °F 86% 29.48 in 10.0 mi WSW 10.4 mph - N/A   Overcast
5:35 AM 30.2 °F 20.8 °F 24.8 °F 80% 29.47 in 10.0 mi WSW 11.5 mph - N/A   Overcast
5:55 AM 30.2 °F 20.8 °F 24.8 °F 80% 29.47 in 10.0 mi WSW 11.5 mph - N/A   Overcast
6:15 AM 30.2 °F 20.2 °F 26.6 °F 86% 29.47 in 10.0 mi WSW 12.7 mph - N/A   Overcast
6:35 AM 30.2 °F 20.2 °F 26.6 °F 86% 29.47 in 10.0 mi WSW 12.7 mph 19.6 mph N/A   Overcast
6:55 AM 30.2 °F 19.8 °F 26.6 °F 86% 29.47 in 10.0 mi WSW 13.8 mph - N/A   Overcast
7:15 AM 30.2 °F 20.2 °F 26.6 °F 86% 29.47 in 10.0 mi WSW 12.7 mph - N/A   Overcast
7:35 AM 32.0 °F 22.5 °F 28.4 °F 87% 29.47 in - West 12.7 mph - N/A Snow Light Snow
7:55 AM 32.0 °F 22.1 °F 28.4 °F 87% 29.47 in 10.0 mi WSW 13.8 mph - N/A   Overcast
8:15 AM 32.0 °F 20.8 °F 28.4 °F 87% 29.47 in 10.0 mi West 17.3 mph - N/A   Overcast
8:35 AM 32.0 °F 21.2 °F 32.0 °F 100% 29.47 in 1.8 mi West 16.1 mph 24.2 mph N/A Snow Light Snow
8:55 AM 32.0 °F 20.8 °F 32.0 °F 100% 29.47 in 9.0 mi West 17.3 mph - N/A Snow Light Snow
9:15 AM 33.8 °F 22.8 °F 32.0 °F 93% 29.47 in 9.0 mi West 18.4 mph 25.3 mph N/A Snow Light Snow
9:35 AM 33.8 °F 21.9 °F 32.0 °F 93% 29.47 in 9.0 mi West 21.9 mph 28.8 mph N/A   Overcast
9:55 AM 33.8 °F 22.2 °F 32.0 °F 93% 29.48 in 9.0 mi WNW 20.7 mph 27.6 mph N/A   Overcast
10:15 AM 32.0 °F 18.1 °F 32.0 °F 100% 29.49 in 2.5 mi WNW 27.6 mph 35.7 mph N/A Snow Light Snow
10:35 AM 30.2 °F 15.2 °F 30.2 °F 100% 29.50 in 0.5 mi NW 29.9 mph 42.6 mph N/A Snow Light Snow
10:55 AM 28.4 °F 12.5 °F 26.6 °F 93% 29.51 in 0.8 mi NW 31.1 mph 42.6 mph N/A Snow Light Snow
11:15 AM 28.4 °F 12.0 °F 24.8 °F 86% 29.52 in 1.2 mi NW 33.4 mph 44.9 mph N/A Snow Light Snow
11:35 AM 28.4 °F 13.5 °F 23.0 °F 80% 29.53 in 8.0 mi NW 26.5 mph 40.3 mph N/A   Mostly Cloudy
11:55 AM 28.4 °F 13.8 °F 23.0 °F 80% 29.53 in 10.0 mi NW 25.3 mph 36.8 mph N/A   Mostly Cloudy
12:15 PM 28.4 °F 13.8 °F 21.2 °F 74% 29.53 in 10.0 mi NW 25.3 mph 32.2 mph N/A   Scattered Clouds
12:35 PM 26.6 °F 11.1 °F 17.6 °F 69% 29.54 in 10.0 mi NW 26.5 mph 38.0 mph N/A   Mostly Cloudy
12:55 PM 26.6 °F 10.6 °F 17.6 °F 69% 29.55 in 10.0 mi NW 28.8 mph 36.8 mph N/A   Mostly Cloudy
1:15 PM 24.8 °F 6.0 °F 14.0 °F 64% 29.56 in 2.5 mi NW 39.1 mph 49.5 mph N/A   Light Freezing Rain
1:35 PM 24.8 °F 8.1 °F 14.0 °F 64% 29.57 in 4.0 mi NW 28.8 mph 40.3 mph N/A   Light Freezing Rain
1:55 PM 24.8 °F 7.3 °F 14.0 °F 64% 29.57 in 9.0 mi NW 32.2 mph 40.3 mph N/A   Overcast
2:00 PM 24.8 °F 7.3 °F 14.0 °F 64% 29.57 in 9.0 mi NW 32.2 mph 40.3 mph N/A   Mostly Cloudy
2:15 PM 24.8 °F 9.0 °F 14.0 °F 64% 29.58 in 10.0 mi NW 25.3 mph 34.5 mph N/A   Mostly Cloudy
2:35 PM 23.0 °F 6.3 °F 17.6 °F 80% 29.59 in 7.0 mi NW 26.5 mph 35.7 mph N/A Snow Light Snow
2:55 PM 23.0 °F 8.3 °F 15.8 °F 74% 29.59 in 10.0 mi WNW 19.6 mph 31.1 mph N/A   Overcast
3:15 PM 23.0 °F 8.0 °F 15.8 °F 74% 29.60 in 10.0 mi WNW 20.7 mph 27.6 mph N/A   Overcast
3:35 PM 21.2 °F 3.0 °F 10.4 °F 63% 29.61 in 10.0 mi WNW 29.9 mph 36.8 mph N/A   Overcast
3:55 PM 19.4 °F -0.6 °F 8.6 °F 63% 29.62 in 10.0 mi NW 34.5 mph - N/A   Overcast
4:15 PM 17.6 °F -1.3 °F 6.8 °F 63% 29.64 in 10.0 mi NW 27.6 mph 39.1 mph N/A   Overcast
4:35 PM 15.8 °F -4.1 °F 6.8 °F 68% 29.66 in 10.0 mi NW 28.8 mph 35.7 mph N/A   Overcast
4:55 PM 14.0 °F -5.8 °F 6.8 °F 73% 29.68 in 9.0 mi NW 26.5 mph 33.4 mph N/A   Mostly Cloudy
5:15 PM 12.2 °F -8.9 °F 3.2 °F 67% 29.69 in 10.0 mi NW 28.8 mph 35.7 mph N/A   Overcast
5:35 PM 10.4 °F -11.7 °F 5.0 °F 79% 29.71 in 10.0 mi NW 29.9 mph - N/A   Overcast
5:55 PM 10.4 °F -11.0 °F 1.4 °F 67% 29.71 in 9.0 mi NNW 27.6 mph 39.1 mph N/A   Mostly Cloudy
6:15 PM 8.6 °F -15.1 °F 1.4 °F 73% 29.71 in 10.0 mi NW 33.4 mph 39.1 mph N/A   Mostly Cloudy
6:35 PM 8.6 °F -13.1 °F 1.4 °F 73% 29.73 in 10.0 mi NW 26.5 mph 38.0 mph N/A   Overcast
6:55 PM 8.6 °F -11.4 °F 1.4 °F 73% 29.75 in 10.0 mi NW 21.9 mph 31.1 mph N/A   Overcast
7:15 PM 8.6 °F -12.7 °F 3.2 °F 79% 29.75 in 8.0 mi NW 25.3 mph 31.1 mph N/A   Overcast
7:35 PM 8.6 °F -11.9 °F 1.4 °F 73% 29.76 in 9.0 mi NW 23.0 mph 31.1 mph N/A   Overcast
7:55 PM 8.6 °F -12.3 °F 3.2 °F 79% 29.77 in 5.0 mi NW 24.2 mph 31.1 mph N/A Snow Light Snow
8:15 PM 6.8 °F -15.9 °F -0.4 °F 72% 29.78 in 10.0 mi NNW 27.6 mph 35.7 mph N/A   Overcast
8:35 PM 6.8 °F -15.9 °F -0.4 °F 72% 29.78 in 10.0 mi NW 27.6 mph 34.5 mph N/A   Overcast
8:55 PM 6.8 °F -15.5 °F -0.4 °F 72% 29.79 in 10.0 mi NW 26.5 mph 34.5 mph N/A   Overcast
9:15 PM 6.8 °F -13.8 °F 1.4 °F 79% 29.80 in 8.0 mi NW 21.9 mph 31.1 mph N/A   Overcast
9:35 PM 5.0 °F -17.9 °F -0.4 °F 78% 29.80 in 10.0 mi NW 26.5 mph - N/A   Overcast
9:55 PM 5.0 °F -19.0 °F -2.2 °F 72% 29.81 in 10.0 mi NW 29.9 mph - N/A   Overcast
10:15 PM 5.0 °F -18.3 °F -2.2 °F 72% 29.81 in 10.0 mi NW 27.6 mph - N/A   Overcast
10:35 PM 5.0 °F -17.5 °F -2.2 °F 72% 29.82 in 10.0 mi NW 25.3 mph - N/A   Overcast
10:55 PM 3.2 °F -18.6 °F -4.0 °F 72% 29.83 in 10.0 mi NW 21.9 mph 27.6 mph N/A   Overcast
11:15 PM 3.2 °F -17.6 °F -4.0 °F 72% 29.83 in 10.0 mi NW 19.6 mph - N/A   Overcast
11:35 PM 3.2 °F -17.1 °F -4.0 °F 72% 29.83 in 10.0 mi NW 18.4 mph - N/A   Overcast
11:55 PM 3.2 °F -16.5 °F -4.0 °F 72% 29.83 in 10.0 mi NW 17.3 mph 24.2 mph N/A   Overcast